This demonstration page uses our WeatherBlox Daily Observations layout. Learn more.

Left ArrowRight Arrow

Hourly Observations for April 30, 2021

Temp ( °F °C ) Dew Point ( °F °C ) Humidity (%) Winds ( mph kmh ) Pressure ( in mb ) Visibility ( mi km ) Precip ( " mm )
12:53 am 00:53 Clear 49 9.4 38 3.3 66 66 WSW 3 6 30.01 1016 10 16 0.00 0.00
1:53 am 01:53 Clear 52 11.1 38 3.3 59 59 SW 3 6 29.98 1015 10 16 0.00 0.00
2:53 am 02:53 Clear 51 10.6 39 3.9 64 64 SW 14 22 29.95 1014 10 16 0.00 0.00
3:53 am 03:53 Clear 56 13.3 38 3.3 51 51 SW 13 20 29.91 1013 10 16 0.00 0.00
4:53 am 04:53 Clear with Light Rain 56 13.3 37 2.8 49 49 SW 14 22 29.88 1012 10 16 0.00 0.00
5:53 am 05:53 Clear with Light Rain 55 12.8 38 3.3 53 53 WSW 14 22 29.87 1011 10 16 0.00 0.00
6:53 am 06:53 Sunny with Light Rain 55 12.8 38 3.3 53 53 WSW 17 28 29.86 1011 10 16 0.00 0.00
7:53 am 07:53 Sunny with Light Rain 58 14.4 38 3.3 48 48 SW 23 37 29.85 1011 10 16 0.00 0.00
8:53 am 08:53 Sunny with Light Rain 58 14.4 39 3.9 50 50 SW 21 33 29.87 1012 10 16 0.00 0.00
9:53 am 09:53 Sunny with Light Rain 60 15.6 40 4.4 47 47 WSW 20 31 29.87 1012 10 16 0.00 0.00
10:53 am 10:53 Sunny with Light Rain 70 21.1 39 3.9 32 32 WSW 23 37 29.84 1010 10 16 0.00 0.00
11:53 am 11:53 Sunny with Light Rain 79 26.1 28 -2.2 15 15 W 25 41 29.81 1009 10 16 0.00 0.00
12:53 pm 12:53 Sunny with Light Rain 81 27.2 21 -6.1 11 11 W 30 48 29.80 1009 10 16 0.00 0.00
1:53 pm 13:53 Sunny 80 26.7 19 -7.2 10 10 W 28 44 29.77 1008 10 16 0.00 0.00
2:53 pm 14:53 Sunny with Light Rain 80 26.7 21 -6.1 11 11 W 26 43 29.77 1008 10 16 0.00 0.00
3:53 pm 15:53 Sunny 80 26.7 24 -4.4 13 13 W 29 46 29.75 1008 10 16 0.00 0.00
4:53 pm 16:53 Sunny 78 25.6 28 -2.2 16 16 W 26 43 29.75 1008 10 16 0.00 0.00
5:53 pm 17:53 Sunny 78 25.6 27 -2.8 15 15 W 28 44 29.75 1007 10 16 0.00 0.00
6:53 pm 18:53 Sunny 75 23.9 28 -2.2 18 18 W 23 37 29.74 1007 10 16 0.00 0.00
7:53 pm 19:53 Sunny 70 21.1 30 -1.1 23 23 W 21 33 29.75 1007 10 16 0.00 0.00
8:53 pm 20:53 Clear with Light Rain 68 20 30 -1.1 24 24 WNW 18 30 29.74 1007 10 16 0.00 0.00
9:53 pm 21:53 Clear with Light Rain 66 18.9 32 0 28 28 W 22 35 29.76 1008 10 16 0.00 0.00
10:53 pm 22:53 Clear with Light Rain 63 17.2 32 0 31 31 NW 15 24 29.77 1008 10 16 0.00 0.00
11:53 pm 23:53 Clear with Light Rain 53 11.7 32 0 45 45 W 12 19 29.78 1008 10 16 0.00 0.00

Powered by AerisWeather